Weather in Komsomolskiy

Russia / Republic of Kalmykia     45°19′53″N   46°02′32″E
temp.,
°C
wind,
m/s
gust,
m/s
humid.,
%
clouds,
%
prec.,
mm/h
press.,
hPa
HPBL,
m
9 may, sun
sun900:00+15ese5106787 0.0 1013383
03:00+14ese7137052 0.0 1011422
06:00+15ese7147575 0.0 1009613
09:00+20sse7855100 0.0 10091014
12:00+22se7750100 0.0 10071228
15:00+23se7645100 0.0 10061401
18:00+19wnw7865100 0.0 10081067
21:00+10wnw152081100 1.1 1013870
10 may, mon
mon1000:00+10wnw131878100 1.4 10151040
03:00+9wnw101576100 2.1 10161148
06:00+9w91376100 0.0 10181005
09:00+11wnw101356100 0.3 10181371
12:00+15wnw101233100 0.0 10172585
15:00+16wnw10113148 0.0 10172769
18:00+15wnw794040 0.0 10171939
21:00+12wsw35555 0.0 1019191
11 may, tue
tue1100:00+10wsw49647 0.0 1019394
03:00+9ssw236978 0.0 101985
06:00+10w346491 0.0 1019151
09:00+14ene564357 0.0 1020976
12:00+19ese6834100 0.0 10182717
15:00+18ese8837100 0.0 10182158
18:00+17se77425 0.0 10191723
21:00+14se35626 0.0 1019114
12 may, wed
wed1200:00+12ese337281 0.0 101942
03:00+11e33665 0.0 101939
06:00+12ene355833 0.0 1019151
09:00+17ne44355 0.0 10191025
12:00+20e333432 0.0 10181566
15:00+23e33371 0.0 10171901
18:00+22se434010 0.0 10171651
21:00+18sse57600 0.0 1017241
13 may, thu
thu1300:00+16s34730 0.0 101776
03:00+14sse22800 0.0 101715
06:00+15ese34780 0.0 1018179
09:00+20se34575 0.0 1018810
12:00+25ese44404 0.0 10171201
15:00+27ese65345 0.0 10161429
18:00+24ese66405 0.0 1016947
21:00+19se465916 0.0 1017216